GFSNW_250_spd_006.txt.gz
Wind_Speed
38 38 37 36 32 27 22 19 18 18 16 15 13 13 14 13 14 16 16 14 13 14 15 15 12 12 12 16 23 28 29 32 32 31 34 41 49 49 43 39 37 39 35 41
39 39 40 37 33 28 27 22 21 19 21 20 18 16 18 16 15 17 14 13 12 13 14 14 14 13 14 16 21 26 32 37 39 38 43 44 51 50 37 34 37 41 44 46
41 40 39 38 35 33 31 27 25 24 25 24 23 21 21 20 18 18 16 16 15 13 15 15 13 13 14 13 15 20 28 33 37 38 36 30 37 41 42 43 46 46 52 50
45 43 41 38 37 36 33 30 28 27 28 29 26 25 24 24 24 25 24 22 19 19 18 18 20 18 18 18 19 21 23 24 26 31 34 36 43 45 50 53 56 56 58 60
47 44 41 39 37 37 35 34 32 29 31 31 30 29 28 29 26 28 28 29 30 29 25 26 26 26 26 27 28 29 31 32 34 39 42 44 47 48 49 51 53 56 59 64
46 47 46 43 43 43 41 40 38 35 35 36 34 35 35 33 31 31 30 29 30 33 33 32 29 29 30 31 32 35 35 34 38 44 47 50 52 52 55 58 64 65 67 70
50 49 47 46 47 47 45 44 44 43 42 41 39 38 39 37 35 34 32 33 31 31 30 29 31 33 34 33 39 41 41 41 42 43 45 46 62 57 59 63 70 73 73 76
56 54 52 51 50 49 49 49 49 48 47 45 44 43 42 41 37 36 32 35 35 34 34 34 37 37 36 40 43 44 44 46 47 51 50 52 67 63 67 68 70 76 78 81
60 59 57 55 55 55 54 54 54 52 50 49 45 44 45 42 39 37 35 33 36 38 37 36 38 42 44 42 47 49 52 54 56 60 61 61 71 73 74 73 75 79 82 83
55 58 57 55 56 57 56 53 54 53 52 51 50 49 48 47 43 45 42 42 42 41 41 40 38 39 44 48 49 52 57 61 64 66 68 71 77 79 82 82 81 82 83 88
53 54 52 51 53 51 50 51 52 51 55 54 52 50 47 44 43 44 44 45 47 47 48 48 48 48 51 54 58 62 66 68 70 72 74 78 80 85 86 87 85 90 93 100
59 60 61 56 56 59 61 59 53 53 53 50 49 50 49 47 48 48 47 50 54 51 53 55 55 56 57 61 64 69 69 72 74 78 77 85 89 90 91 97 99 99 105 110
69 63 61 59 58 56 55 51 50 49 50 52 51 52 53 56 54 53 54 55 56 57 58 59 61 63 67 69 68 70 74 78 80 83 87 90 93 94 97 100 105 108 114 117
68 67 65 64 60 57 58 58 57 57 57 56 57 57 59 61 61 61 62 61 61 63 64 64 67 71 71 70 74 75 81 84 88 92 94 93 97 98 101 107 113 117 119 122
73 71 72 71 67 65 63 64 62 60 62 58 60 64 67 69 67 67 66 67 69 72 74 75 76 79 85 80 78 83 89 93 98 97 101 101 98 103 106 113 115 118 125 132
79 76 77 75 72 71 69 66 68 69 71 69 67 63 67 70 71 71 71 72 75 78 81 82 82 85 89 85 85 86 94 99 103 103 103 106 109 113 119 119 121 128 132 140
85 82 80 79 77 76 74 70 70 75 76 74 70 68 66 73 77 78 78 81 82 83 85 83 83 86 93 93 92 99 103 105 105 108 111 115 119 121 125 129 132 137 140 142
92 88 87 86 84 81 78 79 80 83 85 84 76 72 72 74 79 84 85 88 90 88 89 90 92 92 97 100 106 105 109 112 115 119 120 121 123 126 129 132 138 139 144 142
97 95 94 92 92 92 91 90 90 90 93 91 79 79 79 81 83 87 90 94 96 97 98 102 103 98 104 113 115 115 118 121 121 122 123 126 127 132 136 139 143 143 139 135
106 101 98 96 97 100 99 99 98 99 97 98 93 89 92 94 96 98 102 103 106 107 102 104 104 104 112 119 121 123 127 124 126 129 130 133 135 138 140 143 139 136 130 124
112 109 105 101 102 104 105 104 104 104 103 101 100 103 106 106 107 109 111 111 110 108 108 110 110 113 121 126 128 132 130 132 133 133 135 137 138 136 138 137 131 124 118 112
114 114 113 114 114 111 111 110 108 107 111 111 112 114 116 116 117 116 117 117 117 119 119 121 124 125 133 133 130 130 132 136 135 133 133 132 137 131 126 122 114 108 107 108
119 120 120 121 122 119 121 119 117 118 118 118 120 119 120 121 122 124 125 123 122 122 125 129 132 136 138 138 136 132 133 131 129 130 128 125 121 117 113 110 106 103 102 101
134 131 126 124 124 125 124 126 126 127 125 126 128 127 127 126 127 126 125 127 128 132 133 138 141 143 144 142 139 139 132 128 125 121 119 114 108 104 103 103 100 95 92 88
130 130 134 136 131 131 132 131 131 130 131 132 132 133 132 129 129 130 130 135 140 144 149 147 144 138 135 133 128 125 121 116 113 108 104 101 102 100 96 94 89 82 81 78
108 112 117 121 123 130 135 138 139 135 134 135 135 136 137 137 138 138 141 147 150 145 140 137 132 131 128 125 119 113 108 103 97 95 97 96 95 91 86 84 81 77 76 75
105 111 109 113 117 122 122 128 137 138 139 141 145 145 146 145 147 149 144 134 125 120 120 121 123 118 112 110 105 102 99 97 95 94 94 91 86 82 77 74 75 73 72 69

GFSNW_250_spd_009.txt.gz
Wind_Speed
43 40 34 33 35 32 29 26 23 22 21 18 16 15 14 14 13 13 14 15 14 14 15 15 16 15 11 10 14 14 25 29 29 31 34 37 38 41 44 40 36 37 36 42
49 43 37 38 39 36 32 29 26 23 23 23 21 19 18 18 17 14 13 14 14 15 15 15 16 16 13 11 12 13 17 22 27 31 36 41 42 39 34 34 39 42 45 48
49 43 41 42 40 39 36 33 29 27 26 24 26 24 23 23 20 19 18 17 19 20 18 18 17 17 18 17 16 17 20 21 21 22 24 30 36 37 40 43 46 46 52 48
48 44 44 44 43 41 40 36 34 30 29 28 27 28 28 27 25 23 22 23 25 26 26 26 24 24 25 26 25 24 26 28 29 32 33 36 42 44 49 49 49 47 52 57
50 46 45 45 46 45 44 40 38 36 33 31 30 29 30 30 29 29 27 25 27 28 29 31 32 33 33 33 32 30 31 30 32 38 37 40 47 46 47 50 53 55 59 63
52 48 47 46 46 48 47 45 42 40 36 34 32 32 33 34 32 33 34 33 32 32 31 34 34 32 30 33 35 34 34 32 36 42 44 46 50 48 51 55 59 60 64 69
56 53 51 49 47 47 46 45 44 42 38 37 37 37 35 35 36 38 36 37 36 36 35 34 34 34 34 36 36 39 41 40 44 45 45 48 61 54 57 60 64 69 70 73
58 55 52 51 49 49 48 48 46 44 44 44 43 43 42 41 41 43 43 42 42 40 40 39 39 39 38 38 41 42 43 46 47 49 49 51 66 63 66 66 67 74 74 82
62 59 56 53 52 52 51 51 50 49 48 47 46 47 46 46 46 45 46 44 43 42 41 40 39 38 41 42 45 49 48 50 53 55 57 60 70 70 70 74 73 78 83 88
65 62 59 57 55 54 53 53 53 53 52 51 49 49 50 50 49 48 47 46 46 47 45 45 45 45 44 44 49 51 55 56 59 62 66 67 72 74 78 80 80 83 90 95
64 64 63 61 59 58 57 57 57 56 55 56 56 57 55 54 52 50 49 49 50 47 47 46 46 47 49 49 51 56 59 61 64 67 73 77 80 79 82 85 87 92 96 100
65 66 65 64 63 63 63 62 60 60 58 56 56 56 56 54 51 52 51 50 50 50 50 50 49 50 53 54 54 62 63 70 71 78 77 83 83 84 88 92 93 98 102 106
62 60 63 65 65 63 59 60 58 57 57 59 57 54 54 53 53 55 53 53 53 54 53 52 56 59 60 59 59 63 68 78 76 79 81 85 87 92 95 97 100 104 106 112
63 63 63 64 61 58 60 64 62 61 61 56 55 54 56 54 54 55 57 59 59 60 61 62 64 62 62 62 64 67 75 78 81 81 84 89 96 99 97 101 106 109 115 121
64 67 67 68 68 69 68 63 60 62 61 56 53 56 61 59 59 60 61 60 61 65 65 65 66 69 71 66 69 75 84 88 91 89 95 99 97 101 107 109 114 119 122 129
74 68 70 72 70 70 67 62 64 66 67 62 58 58 65 65 67 66 67 69 68 68 67 67 71 78 82 79 79 83 92 93 94 97 100 104 107 108 111 114 123 131 133 135
79 80 77 76 73 71 69 69 70 73 74 71 68 65 64 71 73 75 77 77 76 76 75 75 79 83 88 86 84 95 96 99 102 107 106 109 111 114 120 126 130 134 136 142
83 82 83 84 81 79 75 75 76 77 80 78 72 71 70 72 75 82 85 87 88 86 86 85 87 88 93 95 98 101 106 108 113 114 114 117 120 125 125 131 133 138 146 154
90 89 85 85 87 85 82 84 84 84 86 83 79 77 78 80 84 86 89 93 95 95 95 98 99 99 105 110 110 112 115 116 119 122 124 127 130 128 133 137 143 153 154 151
96 95 94 92 90 87 88 91 92 92 92 90 87 86 89 92 93 94 97 98 99 99 98 103 104 105 111 116 118 120 124 125 128 130 133 132 135 136 139 147 154 151 146 135
101 101 102 101 99 100 100 99 96 94 94 95 97 99 101 103 104 105 105 107 109 109 110 113 113 114 117 121 123 126 127 130 131 134 135 136 139 142 146 150 145 139 128 117
108 108 108 108 107 107 108 104 101 101 103 103 107 107 109 108 109 112 114 116 117 119 120 121 124 127 129 132 135 134 134 134 136 140 141 142 148 148 145 138 127 118 112 106
117 114 114 113 114 114 112 111 110 110 109 110 114 116 115 115 117 120 120 122 125 128 128 129 133 135 135 134 135 136 140 141 141 140 144 153 148 142 130 117 109 104 105 104
117 118 120 120 120 117 115 117 122 119 118 118 118 117 118 120 122 123 127 128 129 132 132 136 139 140 142 144 146 147 147 147 147 148 145 138 120 114 108 105 104 102 100 95
118 119 123 121 117 118 120 120 122 122 121 122 123 123 124 127 130 131 132 139 143 144 148 148 148 150 152 153 151 148 146 145 142 130 116 111 107 103 101 102 101 96 89 82
128 127 124 126 127 127 127 126 129 131 130 130 131 132 135 138 137 139 137 135 138 141 138 137 138 137 136 139 135 130 121 114 107 103 101 99 99 99 96 95 91 84 79 75
122 120 122 124 128 129 128 131 131 129 129 132 127 124 122 124 125 121 123 123 123 125 127 125 118 117 116 110 105 104 102 99 97 96 95 95 95 92 88 81 78 75 71 68

GFSNW_250_spd_015.txt.gz
Wind_Speed
39 39 33 24 29 29 33 32 28 23 22 22 21 19 16 16 14 11 8 7 9 10 11 12 12 12 13 12 12 13 13 14 13 13 13 16 18 22 25 25 25 30 31 41
38 40 38 30 31 31 33 30 34 29 25 23 22 18 18 18 16 13 11 12 14 13 13 14 16 16 17 18 19 20 21 21 21 21 22 23 26 27 27 27 29 33 35 40
44 45 38 34 31 32 32 31 33 33 29 26 24 21 21 20 17 15 16 16 16 16 17 19 21 22 23 23 25 27 28 27 29 31 30 29 30 27 27 29 31 33 43 37
46 45 42 40 34 34 32 31 33 34 32 29 27 25 23 21 20 21 22 22 23 24 24 25 25 26 27 28 27 28 29 30 30 29 29 30 32 34 34 33 37 39 40 43
52 48 45 46 38 38 37 32 34 35 34 31 30 28 26 25 24 25 26 28 28 28 28 29 30 31 32 32 32 31 31 30 32 35 32 34 38 37 38 39 41 42 45 50
57 57 52 48 43 42 42 40 39 38 38 36 33 31 30 30 29 29 29 30 30 31 32 33 34 35 35 36 36 36 36 31 29 34 36 40 45 42 43 45 48 50 53 58
58 60 58 51 50 43 45 43 41 43 42 41 38 37 36 34 34 33 32 33 33 33 35 36 37 38 40 41 42 40 38 37 34 38 38 42 48 43 46 48 55 55 58 61
62 66 64 59 57 52 47 48 45 44 45 46 45 43 42 41 40 40 38 38 39 39 40 41 42 43 44 45 44 41 42 40 39 39 39 43 51 49 51 55 57 60 64 69
63 65 62 60 57 54 54 53 50 48 48 48 47 47 48 47 45 43 44 45 45 46 45 44 43 44 46 43 44 44 46 45 44 43 43 47 52 53 58 61 63 70 73 74
67 65 65 65 65 63 60 58 56 53 50 50 50 52 51 50 48 49 48 49 50 49 49 48 47 48 46 43 45 48 48 47 47 47 50 55 59 62 66 69 72 74 76 81
64 65 63 61 60 58 59 61 59 56 53 51 51 51 50 50 50 50 52 52 52 51 51 51 52 47 45 46 48 52 52 49 51 54 61 64 66 68 73 76 74 80 86 91
55 63 65 64 63 61 60 62 62 59 58 56 54 51 50 50 50 53 55 56 54 52 54 55 51 45 47 50 52 55 56 57 58 60 66 70 72 76 78 80 84 87 94 97
54 57 60 61 60 60 60 61 62 63 63 61 58 55 54 54 54 55 55 56 56 57 59 56 51 49 50 51 53 56 63 65 64 65 72 75 79 81 85 88 92 96 103 109
56 55 58 59 62 62 63 66 67 66 66 64 62 59 57 58 57 58 58 61 61 61 59 56 54 56 56 55 59 62 70 70 71 74 79 80 85 88 92 96 103 106 110 114
57 57 57 55 60 63 66 67 68 69 69 66 66 63 62 61 62 62 62 61 59 60 58 60 60 60 61 61 64 68 75 77 79 80 84 86 89 95 100 105 107 115 115 118
58 56 56 58 59 59 62 65 68 70 70 68 70 67 66 66 66 64 64 65 63 63 63 65 64 67 68 68 70 74 79 82 83 84 88 92 97 99 107 112 115 115 123 125
65 62 62 62 60 58 57 58 64 65 64 63 61 60 62 62 62 64 66 66 66 64 63 64 69 74 75 74 77 82 84 86 88 92 99 102 106 108 112 118 122 125 127 123
73 70 67 66 65 63 60 61 63 64 63 60 55 54 58 64 68 71 71 69 69 66 68 69 73 75 78 79 84 87 90 92 97 101 105 109 113 119 123 126 127 123 123 122
79 79 76 72 69 65 64 69 68 68 67 63 58 58 63 64 69 72 75 75 74 74 77 79 82 85 89 91 95 95 98 101 105 108 111 116 122 123 125 126 127 120 119 121
84 84 83 79 75 76 77 76 74 74 71 67 65 67 69 72 76 79 81 82 81 82 83 86 86 88 92 97 99 101 104 107 110 115 120 123 121 123 125 126 122 120 117 112
93 91 88 85 86 85 85 87 84 80 78 76 75 78 82 84 85 86 86 86 87 87 87 91 91 94 101 103 105 108 111 114 120 123 119 121 122 119 117 116 116 113 111 109
94 93 92 92 91 91 92 91 87 86 86 85 87 88 88 90 91 92 94 95 96 97 97 98 98 102 106 109 112 114 117 121 118 118 121 121 118 115 113 113 109 107 108 109
101 101 99 97 95 96 93 91 92 92 92 93 93 95 95 95 96 98 101 103 103 104 104 106 109 111 112 114 116 114 115 115 119 122 120 116 113 109 111 109 109 109 107 107
103 102 102 100 100 98 97 95 94 96 97 99 99 100 102 102 103 105 107 107 108 111 112 115 115 117 116 115 115 117 116 118 118 116 114 112 110 106 109 110 109 107 105 103
108 107 106 100 99 97 98 99 102 105 105 104 107 108 107 107 109 109 112 116 119 117 115 114 112 112 114 119 119 118 119 117 115 114 112 108 107 106 105 106 104 104 101 97
102 106 107 107 107 106 105 107 106 106 108 105 103 108 110 112 112 110 110 112 113 114 110 109 109 114 118 115 115 115 113 112 111 111 108 105 105 103 100 99 100 97 93 88
98 99 103 107 106 104 104 104 105 104 104 105 103 101 104 105 104 107 114 116 112 108 108 114 116 112 114 114 113 111 109 108 109 107 104 102 100 98 96 94 91 88 85 79

GFSNW_250_spd_021.txt.gz
Wind_Speed
50 47 45 44 42 40 38 35 33 32 32 31 30 26 23 17 15 14 13 13 13 10 8 7 6 7 7 7 7 9 11 13 15 18 20 20 20 22 23 26 29 32 33 39
55 45 46 47 44 40 37 36 35 31 31 30 29 26 24 17 15 15 14 15 14 11 10 10 9 9 9 11 13 14 16 18 20 22 24 26 26 25 26 27 29 32 34 39
56 50 48 48 43 42 38 39 35 33 31 30 29 26 23 18 17 17 17 17 16 15 14 13 13 13 15 17 18 19 21 24 25 27 28 27 27 29 32 33 35 34 38 38
56 52 51 48 43 42 40 41 37 34 33 32 30 26 23 21 20 20 20 20 19 19 19 17 17 19 20 21 21 23 24 26 29 31 34 37 34 33 35 36 38 37 43 45
61 55 52 48 44 41 40 43 40 35 35 33 31 28 26 25 25 24 24 23 23 22 20 20 20 22 23 24 26 26 27 30 34 39 39 42 43 41 39 39 39 40 43 46
61 58 55 50 43 41 42 42 40 38 36 34 32 29 27 26 27 27 27 26 25 24 24 24 25 26 27 29 30 32 33 34 35 39 42 47 44 42 42 41 41 45 46 47
64 58 55 53 46 43 38 39 43 42 41 36 34 34 32 30 32 31 31 30 30 30 29 30 31 32 33 35 37 38 40 39 40 42 43 49 44 43 45 48 44 44 45 48
63 59 59 56 53 43 44 39 38 41 42 40 35 33 34 36 35 34 34 35 35 35 35 36 37 39 39 41 43 44 44 44 44 46 45 47 46 45 45 43 45 49 51 54
65 63 61 58 55 45 45 40 38 38 38 35 36 36 36 35 36 38 40 40 40 41 42 43 45 45 45 46 48 50 49 49 50 47 49 47 46 42 47 46 49 53 58 63
60 62 62 61 57 49 49 49 46 41 42 40 38 39 40 39 39 39 41 45 46 47 48 50 52 52 53 52 52 51 51 53 53 53 52 51 48 50 52 54 56 58 64 69
63 62 62 64 60 58 54 53 49 47 45 44 42 41 40 41 42 41 44 43 45 47 50 50 53 53 53 51 50 52 54 56 57 58 60 55 52 53 54 59 61 65 69 74
63 63 66 66 63 61 59 57 55 54 54 52 50 48 48 47 48 49 52 51 51 51 52 53 53 52 52 52 54 56 60 61 62 63 65 61 59 59 61 63 67 72 75 77
67 65 67 69 67 66 65 63 63 62 61 58 58 56 57 57 58 58 60 58 59 60 59 60 58 57 56 56 58 61 69 65 67 66 67 65 64 67 67 70 75 78 82 87
65 67 67 65 65 62 62 63 62 62 64 64 61 61 62 62 64 66 66 65 66 67 64 63 63 62 60 60 63 67 75 73 71 67 67 66 68 71 73 78 80 84 90 95
65 68 67 67 69 66 64 65 64 65 64 62 64 63 63 65 69 69 68 69 65 64 63 62 63 64 66 61 64 73 76 72 69 69 68 71 72 76 80 84 89 93 98 102
56 61 67 71 71 69 71 70 69 69 69 66 67 67 69 71 71 72 72 69 67 67 65 63 65 69 68 65 66 70 71 72 71 71 72 75 76 82 88 92 95 99 104 107
57 59 57 54 55 59 60 62 65 65 68 71 72 71 71 73 72 69 66 67 66 64 62 62 66 67 66 64 64 72 70 72 73 75 76 79 84 89 93 97 100 103 107 112
67 63 59 56 56 56 55 55 58 59 57 57 53 53 58 63 62 63 64 63 63 61 61 61 65 64 65 65 72 73 74 75 78 80 85 88 91 93 97 99 104 109 112 115
72 72 69 67 62 61 62 63 63 63 60 56 49 51 55 57 60 62 64 66 67 65 65 66 65 62 66 74 76 77 78 79 82 86 89 92 94 99 102 105 110 112 118 123
79 77 76 74 70 69 71 70 68 66 66 60 58 61 60 62 66 72 75 74 73 69 64 67 66 66 74 80 82 83 83 85 88 90 94 97 100 103 106 112 117 120 122 119
85 84 80 76 77 79 80 79 75 72 70 65 62 63 67 69 72 76 76 75 74 72 68 74 72 73 82 85 87 89 90 91 93 95 98 101 104 108 112 118 122 121 120 122
86 87 85 84 85 86 88 86 82 78 75 72 69 71 74 75 77 80 80 83 82 80 79 82 81 83 89 90 91 92 93 96 98 100 103 105 110 114 118 121 120 118 120 120
91 91 92 94 93 95 96 90 83 82 80 79 80 81 82 82 83 86 88 90 90 89 89 89 90 93 93 95 96 97 99 103 103 107 107 113 116 120 120 118 117 117 116 118
91 92 96 95 98 95 97 96 92 88 87 85 86 88 89 90 92 93 95 97 98 98 94 94 97 97 100 100 102 106 107 106 108 112 116 119 121 117 117 117 117 114 115 112
86 92 95 98 98 97 98 98 97 95 95 94 93 94 95 95 98 98 98 100 101 100 101 101 102 103 104 108 110 110 111 115 117 118 117 117 115 114 113 114 113 111 109 105
88 88 89 92 94 97 100 101 100 101 104 104 103 101 101 103 102 102 104 105 104 103 104 106 108 111 113 114 114 114 116 116 112 113 114 114 114 112 113 112 110 105 102 97
91 93 95 95 96 99 101 105 105 100 101 103 103 103 103 102 104 107 108 109 108 108 109 111 112 112 113 111 113 115 110 111 112 113 112 112 112 110 108 104 101 96 95 94

GFSNW_250_spd_024.txt.gz
Wind_Speed
56 45 46 48 41 40 37 37 35 35 32 30 26 25 24 21 20 22 20 17 14 13 12 11 9 9 8 6 6 7 9 11 13 15 18 19 20 21 23 28 31 31 34 42
56 46 47 46 42 41 42 40 37 35 31 29 29 27 26 23 22 23 19 15 14 14 14 13 10 9 9 9 10 12 14 16 18 20 23 27 29 30 32 34 36 39 39 41
56 49 48 45 44 42 40 40 36 33 30 29 30 31 29 25 21 20 17 14 15 16 16 14 13 12 11 11 13 15 18 20 22 22 23 27 30 32 34 34 37 42 42 41
55 52 49 48 45 44 43 39 37 34 31 32 34 32 29 28 22 19 18 17 18 19 19 17 16 17 16 16 17 18 19 22 24 26 29 31 36 36 38 39 41 38 43 41
59 50 52 48 47 45 40 36 35 35 33 32 33 33 29 28 25 22 20 20 20 21 21 20 20 20 20 18 20 21 23 26 29 32 34 36 38 41 42 43 44 44 43 45
59 53 50 50 47 44 40 39 37 36 34 33 33 32 30 28 27 24 23 23 22 24 24 24 24 24 24 25 25 27 29 32 35 39 40 41 41 44 46 47 47 45 47 48
61 56 53 48 48 48 45 39 39 37 37 36 35 33 32 29 28 27 24 25 27 26 28 28 28 29 30 31 32 34 36 37 40 43 45 48 43 46 45 48 49 48 47 47
66 59 56 52 49 50 47 41 37 41 39 37 35 34 34 32 29 28 30 29 30 31 32 33 33 34 35 38 41 42 43 46 47 48 48 48 48 46 52 51 56 51 53 53
62 63 59 55 53 49 47 42 38 38 39 41 40 35 35 31 31 31 31 34 35 35 36 37 39 40 42 44 47 50 50 50 51 51 50 50 53 50 52 55 57 55 56 58
61 64 62 57 53 52 50 44 43 38 34 37 37 36 38 37 35 30 33 32 33 34 36 38 42 42 46 46 47 51 51 51 53 52 53 55 56 58 61 62 61 59 60 60
63 62 62 62 58 55 55 53 45 40 41 35 32 34 34 35 31 34 35 37 38 38 37 38 41 43 47 50 53 57 59 59 58 58 60 59 60 63 64 67 65 63 64 66
61 61 61 63 62 58 55 52 54 45 43 42 39 38 38 37 36 38 41 39 45 44 46 49 53 55 57 59 61 64 66 66 63 62 66 67 65 66 68 67 65 64 66 70
62 61 61 62 64 62 59 56 56 54 48 45 42 47 46 44 44 45 46 49 51 52 54 59 60 61 63 65 68 70 65 67 64 60 66 67 68 71 70 68 68 69 73 78
62 60 60 62 62 62 64 61 60 57 58 54 53 53 51 53 52 53 54 54 56 58 62 63 66 67 67 67 71 66 69 68 67 65 68 70 69 70 71 70 71 75 80 85
63 64 62 61 59 62 62 60 62 64 62 59 59 59 61 61 63 64 62 61 62 63 66 68 70 70 73 71 68 65 70 69 68 68 68 70 70 72 73 74 77 80 85 89
65 64 63 63 62 62 60 59 61 65 66 64 65 67 66 64 63 63 64 64 66 68 68 71 72 75 76 71 62 66 68 72 73 73 69 69 70 72 76 79 82 87 90 92
63 63 64 66 64 63 63 60 65 66 68 68 64 62 61 64 64 65 65 68 71 72 73 75 79 79 74 63 60 73 75 76 74 72 72 73 77 79 82 86 90 92 94 97
55 60 63 63 63 64 63 64 66 67 68 68 62 62 67 70 69 72 73 75 78 79 78 72 69 67 65 61 73 77 79 76 74 75 76 78 83 86 90 93 96 98 99 103
60 59 57 56 54 56 65 68 71 71 69 67 65 68 72 72 71 72 69 65 65 62 61 63 65 62 66 76 78 78 75 77 77 80 83 86 91 93 95 99 102 104 105 109
68 66 63 61 60 63 63 63 64 63 61 57 55 61 62 65 67 70 70 69 69 66 66 70 68 64 73 84 82 81 81 82 85 88 91 94 96 98 102 104 106 108 112 117
73 69 67 67 69 71 70 69 67 65 62 60 59 61 65 67 69 73 75 74 74 71 69 74 72 70 77 84 85 87 89 91 93 96 98 100 102 102 106 109 112 114 119 122
84 82 80 80 79 80 80 77 73 70 68 66 66 68 72 74 77 78 77 77 80 78 77 78 77 79 82 86 89 93 95 98 101 103 105 105 107 109 112 115 120 123 125 126
89 89 88 88 88 89 88 82 77 76 76 76 79 79 81 82 84 85 85 86 87 86 86 87 90 90 92 94 96 99 101 103 105 106 107 110 113 115 119 121 124 121 116 117
83 85 90 93 94 93 92 89 86 85 85 85 85 87 88 87 89 91 93 94 94 93 93 94 96 97 98 100 102 104 106 110 111 113 115 117 118 121 121 118 118 119 119 117
86 87 88 89 93 95 95 96 93 91 89 91 92 92 93 92 94 94 95 98 100 100 101 101 100 103 105 108 110 112 113 116 119 118 119 119 117 113 116 118 119 116 112 114
82 83 87 89 91 93 95 96 97 97 98 97 98 98 99 101 102 104 103 103 102 104 103 105 109 112 114 117 120 119 118 117 114 111 109 111 115 116 114 112 109 109 108 105
88 88 89 92 91 90 91 94 98 100 100 101 101 101 103 104 105 105 107 110 110 113 113 114 114 112 113 113 113 110 110 111 114 114 112 107 104 104 104 106 108 102 102 99

GFSNW_250_spd_030.txt.gz
Wind_Speed
42 41 41 52 55 53 44 41 43 38 37 34 32 33 30 26 24 22 20 19 19 17 14 11 11 13 13 12 11 10 9 9 11 11 12 14 15 17 21 25 25 28 34 34
46 47 48 52 55 53 44 45 38 38 36 31 32 32 29 25 24 22 20 19 19 17 14 15 15 14 13 12 12 11 12 13 14 16 16 15 17 20 24 28 33 35 38 38
49 52 54 58 54 50 46 42 39 35 31 31 33 32 29 26 24 23 20 19 18 16 16 17 15 14 14 14 14 14 15 16 17 17 18 18 20 23 27 30 35 39 40 45
55 57 62 55 53 49 45 41 38 38 34 33 35 34 31 27 24 22 19 19 18 18 18 19 17 15 15 15 15 16 17 19 18 18 20 23 27 31 34 37 40 42 45 46
61 66 63 53 51 47 46 43 40 37 37 32 34 30 28 26 25 22 19 18 21 23 22 21 17 15 15 15 17 18 20 19 19 22 24 29 33 36 38 40 46 48 50 52
66 68 60 50 53 46 42 38 39 37 33 32 34 29 26 25 24 23 21 23 24 22 20 18 17 17 16 18 19 20 21 22 24 26 28 33 36 37 41 45 50 55 59 58
68 66 62 50 52 49 40 40 41 39 36 32 35 30 23 23 26 27 26 25 20 17 19 18 15 16 17 19 22 23 25 26 28 30 31 32 37 43 45 49 52 55 59 60
66 65 56 51 52 47 43 44 46 41 37 34 33 25 27 28 27 29 27 26 23 23 21 20 19 20 23 25 26 28 27 27 28 29 34 38 42 46 50 54 59 58 62 64
62 64 53 52 46 53 42 42 45 39 35 32 30 28 30 30 29 30 29 25 26 26 24 22 22 23 22 23 26 27 26 28 33 38 41 45 48 53 56 59 63 65 69 70
65 63 53 51 48 46 42 49 45 40 37 36 31 27 31 32 30 30 30 31 29 27 24 22 21 21 20 23 27 32 34 38 43 47 49 51 53 56 60 63 63 67 73 71
62 64 58 56 47 43 44 48 44 41 38 36 30 25 27 31 33 32 32 32 32 30 26 28 26 27 29 32 33 36 39 44 50 53 55 55 61 63 66 67 69 74 75 69
65 63 59 53 52 47 47 49 45 41 40 38 35 34 28 29 33 36 35 35 33 31 34 30 31 32 33 34 35 42 47 51 53 58 62 64 66 66 68 71 73 76 75 70
63 65 57 57 53 49 47 46 49 47 42 42 39 35 37 34 33 34 35 37 38 36 35 36 37 38 40 40 44 48 52 55 60 64 66 67 69 70 73 75 75 79 75 72
56 63 64 60 56 51 48 44 46 50 46 44 41 39 39 41 39 36 34 35 36 37 40 42 44 43 45 48 51 56 63 66 68 67 67 68 70 73 76 77 79 76 74 76
54 53 56 58 63 61 55 51 49 47 47 49 52 47 48 47 46 46 46 43 43 44 47 49 49 53 54 54 60 64 70 72 71 69 72 73 76 77 75 75 74 75 79 81
56 53 54 54 55 62 61 57 55 54 51 49 51 54 54 51 50 52 54 55 56 56 57 59 60 63 65 61 61 69 73 73 72 74 78 79 81 79 81 80 79 82 84 87
52 55 53 52 54 55 59 58 58 60 58 55 53 54 56 58 60 60 61 60 60 59 60 62 65 68 69 67 65 75 72 74 77 81 81 84 82 83 83 83 85 86 89 92
51 52 52 52 51 52 57 58 59 60 61 61 57 58 62 64 64 65 65 66 66 65 65 63 67 68 69 67 74 73 75 79 81 82 83 84 84 84 85 87 89 92 96 100
49 47 48 50 53 54 54 56 59 60 58 59 59 61 61 62 67 69 71 72 71 67 68 71 69 65 66 74 74 75 80 82 84 84 84 86 86 88 89 92 96 100 103 107
51 49 48 50 51 53 55 56 54 52 54 54 54 58 60 64 66 69 71 71 71 69 69 71 68 67 71 77 79 80 83 85 86 85 85 88 90 92 95 100 102 105 108 111
53 52 52 53 52 52 51 51 54 55 54 55 56 62 65 68 70 73 72 70 71 69 70 73 69 70 78 81 83 84 82 85 88 90 92 93 95 98 103 106 109 112 115 119
59 58 56 56 54 55 55 51 51 52 54 55 62 66 69 70 71 70 72 74 73 72 73 75 73 75 75 77 79 80 83 86 89 93 97 99 103 106 109 112 115 118 121 126
65 64 65 63 62 60 55 52 54 57 58 59 62 65 67 67 70 72 74 75 75 76 75 74 77 79 80 82 84 88 90 93 96 100 104 107 110 113 116 120 123 125 125 125
71 71 71 71 68 65 62 61 61 61 62 62 64 68 68 70 73 75 77 79 80 82 83 83 86 89 90 92 95 98 100 103 106 109 112 115 119 123 126 126 123 121 120 117
76 76 79 78 76 75 74 73 72 71 72 73 74 76 78 80 83 84 86 89 91 92 92 93 96 99 102 104 107 108 111 115 117 119 122 124 124 121 119 121 117 111 111 111
79 83 84 84 86 86 84 83 82 82 82 84 85 86 88 89 91 93 96 98 100 102 103 104 107 110 113 116 119 122 122 122 121 119 117 115 113 113 112 110 109 109 107 100
80 82 84 86 87 91 91 90 92 92 92 92 92 93 96 98 99 100 103 105 106 109 111 114 116 118 121 123 124 121 118 116 115 112 109 110 108 109 108 111 111 106 102 95

GFSNW_250_spd_033.txt.gz
Wind_Speed
57 57 48 37 40 45 50 53 48 41 33 34 34 32 31 28 28 28 29 27 25 22 19 16 12 12 13 14 16 14 13 12 9 9 11 13 14 15 17 19 21 25 26 28
62 56 45 40 44 50 55 51 48 42 38 34 33 33 33 32 30 29 27 24 22 21 18 15 12 13 15 15 14 14 12 11 12 13 16 17 18 17 19 22 27 29 32 33
62 56 43 47 48 54 59 54 46 40 41 34 36 36 36 33 30 27 24 23 22 21 17 15 15 16 15 16 15 14 13 15 16 17 18 18 18 21 23 27 30 32 34 37
63 53 44 49 52 57 57 47 42 44 35 33 35 36 35 32 30 27 24 23 22 22 20 18 18 17 17 17 16 15 16 18 19 21 21 21 22 24 27 30 31 34 39 44
61 52 49 50 56 58 52 43 45 41 40 39 37 38 35 31 29 27 25 23 23 23 20 18 18 17 15 16 16 17 18 20 22 23 23 25 27 29 29 31 35 38 42 47
59 51 50 53 58 61 53 45 48 41 38 35 36 37 35 32 30 28 26 24 23 22 18 20 19 19 22 20 20 19 20 21 23 26 25 27 31 31 31 37 42 44 48 52
57 53 55 54 56 62 49 48 45 39 37 35 39 38 35 32 31 28 27 27 24 19 19 22 22 22 20 21 21 20 22 24 26 27 28 28 30 35 38 43 49 51 55 58
53 55 58 59 62 57 48 48 45 41 40 42 37 36 33 31 32 30 29 28 23 19 21 22 22 21 23 23 25 26 27 27 26 27 29 28 38 42 45 49 52 56 61 63
54 60 61 61 59 54 51 47 45 43 42 38 35 37 33 31 29 29 31 30 28 26 25 24 24 24 26 25 28 27 24 25 26 30 33 37 43 48 51 53 56 62 63 65
60 61 63 59 56 57 52 49 46 44 39 38 35 35 37 33 29 28 29 32 32 29 28 27 29 27 26 28 28 27 26 29 32 35 36 39 49 53 55 58 62 64 66 68
64 66 63 57 54 56 54 45 40 43 40 40 37 33 36 34 30 28 30 31 33 33 32 31 32 29 30 31 32 34 35 35 37 39 43 45 54 55 58 64 65 66 69 72
64 66 65 59 48 52 56 50 42 41 44 41 39 36 35 33 28 27 29 33 34 34 36 35 35 35 34 35 35 38 39 42 43 46 50 54 57 60 65 67 68 69 72 75
63 65 60 57 53 48 49 49 44 44 43 43 40 39 37 35 32 28 29 33 35 36 38 39 39 38 39 39 40 42 45 48 48 53 59 64 65 69 70 68 70 72 77 78
60 60 63 55 52 49 43 43 43 45 48 44 44 43 40 40 39 38 38 35 34 37 39 40 42 42 43 43 43 46 52 57 59 59 65 67 72 73 73 73 74 77 80 83
62 58 61 60 52 50 47 45 43 44 49 48 46 46 45 45 46 44 44 44 44 43 41 38 40 44 44 43 45 56 66 65 65 66 71 73 76 78 77 77 78 82 84 86
62 63 62 62 57 51 50 46 46 45 46 48 51 53 50 49 50 50 51 53 51 50 51 51 52 55 55 53 55 67 69 69 69 71 75 75 76 76 77 78 82 85 86 86
59 61 63 61 63 60 55 53 49 48 48 47 48 49 51 57 59 59 59 60 59 57 56 57 60 62 61 57 60 72 70 72 75 77 78 77 79 79 81 84 87 88 88 90
52 58 59 61 61 61 59 59 57 54 52 49 48 50 54 57 59 60 61 62 62 62 62 63 66 63 64 63 72 72 75 77 79 79 77 79 80 83 85 88 89 89 91 94
51 51 56 58 58 56 61 64 62 61 61 59 57 59 61 61 64 64 65 64 64 63 64 67 68 68 71 78 79 78 76 77 79 78 81 81 85 87 88 89 91 94 97 100
47 50 52 54 58 58 60 58 55 55 56 57 62 66 66 68 70 72 72 72 71 69 72 73 70 65 71 75 76 77 78 78 78 80 83 84 85 87 91 94 96 100 103 107
49 48 48 51 52 52 54 57 58 57 56 55 56 62 66 69 71 74 74 72 72 70 70 71 68 67 73 76 78 79 79 81 84 85 86 88 90 93 97 100 104 107 111 115
52 51 50 50 50 49 47 44 44 46 49 56 66 71 73 72 74 74 72 72 70 68 69 70 69 72 77 79 79 81 83 84 86 87 90 93 97 100 103 107 110 115 120 124
60 57 56 54 52 50 48 47 48 52 53 57 58 59 60 61 64 66 68 69 68 69 70 70 73 76 78 78 80 83 84 86 89 92 96 100 104 108 112 116 120 124 128 127
63 61 60 59 56 53 53 55 57 59 59 59 61 63 64 66 67 69 71 73 73 73 73 75 77 79 80 83 86 88 91 94 97 101 106 110 114 119 122 123 126 126 123 121
69 69 67 66 62 61 62 62 62 63 64 65 67 68 69 72 73 75 77 79 79 79 80 82 85 87 90 94 97 98 102 105 108 112 115 118 121 124 127 128 125 123 119 119
68 70 71 71 69 69 69 70 71 71 71 72 74 75 77 79 81 82 84 86 86 89 92 94 96 99 101 104 107 110 112 114 117 119 122 125 126 125 121 120 117 115 119 113
67 70 72 74 75 75 76 77 78 80 81 81 82 83 86 88 90 92 94 96 98 100 103 104 106 108 110 113 116 119 121 123 124 123 120 116 115 115 113 113 114 109 106 103

GFSNW_250_spd_036.txt.gz
Wind_Speed
53 57 59 62 49 45 46 38 45 44 44 41 34 34 30 28 30 27 25 24 24 23 23 20 16 14 14 14 14 16 15 14 11 9 8 7 9 12 15 16 17 19 20 24
61 59 62 59 49 51 47 44 50 50 47 40 37 35 31 28 28 26 26 26 25 25 22 20 18 15 15 16 16 17 14 13 11 9 9 11 14 17 20 21 21 22 25 28
62 65 64 54 52 54 48 53 53 52 51 40 40 36 31 32 29 29 29 29 28 26 23 22 19 16 16 16 17 16 14 12 10 11 13 16 18 20 21 23 24 28 29 31
66 67 55 56 56 53 51 53 54 50 41 37 37 35 34 34 32 32 31 30 28 27 25 22 19 16 15 15 15 14 13 13 13 15 16 18 21 24 25 27 29 31 32 35
64 57 58 58 57 52 55 54 56 50 43 43 38 35 36 35 34 33 32 29 28 26 25 21 17 16 16 15 14 16 17 18 18 19 20 22 25 27 28 30 31 31 36 41
54 58 61 60 54 57 59 56 58 53 44 41 37 38 40 38 37 35 32 28 26 25 23 21 18 17 17 17 21 22 20 20 21 24 23 24 30 30 31 30 31 36 41 44
56 62 63 59 57 61 61 60 55 51 43 42 42 42 39 40 38 34 31 28 25 23 22 21 20 22 23 25 23 23 24 23 25 28 28 25 33 35 31 31 38 43 45 50
64 65 63 57 59 60 64 61 54 48 47 47 43 37 40 40 37 35 32 28 26 23 23 23 24 25 27 26 27 28 28 28 29 29 31 28 35 36 36 38 42 49 52 54
68 66 60 61 60 61 63 57 51 50 47 46 42 39 40 40 38 34 30 29 28 25 25 26 27 27 27 27 30 31 31 32 31 33 31 29 36 40 40 41 44 53 58 61
67 65 61 60 62 57 63 54 52 52 48 43 38 38 41 41 38 34 31 31 29 28 29 28 27 27 28 30 32 34 32 33 34 34 32 34 41 43 44 46 51 57 62 64
66 61 58 61 60 57 64 52 50 51 45 42 39 39 40 41 37 31 29 30 32 31 32 33 33 33 33 35 35 36 35 34 38 41 42 40 45 47 50 53 59 63 66 71
64 55 59 60 60 58 63 53 53 51 46 42 42 42 41 40 37 32 32 32 31 32 34 35 36 36 37 37 37 40 39 41 43 48 49 48 47 50 54 62 66 68 72 75
59 56 60 63 62 64 63 53 51 48 45 43 44 43 41 38 38 35 34 33 33 32 33 35 36 38 40 40 41 43 47 49 51 52 54 54 52 59 64 68 70 74 77 80
53 57 63 61 57 57 54 51 49 47 47 46 46 46 42 39 38 37 36 36 34 32 31 33 35 37 40 42 44 46 52 55 54 52 55 57 64 69 71 73 75 77 81 83
54 59 59 60 53 53 54 54 52 49 44 44 46 45 43 42 42 41 41 41 39 37 37 37 37 39 39 38 39 48 54 52 52 55 64 66 70 73 75 77 80 84 86 86
59 62 59 58 52 48 45 51 51 51 48 45 45 47 48 47 47 47 47 47 47 46 44 44 45 48 46 44 50 64 62 63 65 65 67 71 75 76 79 82 86 87 87 87
60 61 58 56 57 51 47 46 47 47 47 47 47 47 49 51 52 52 52 51 52 50 49 51 53 55 56 55 59 66 67 68 69 70 73 76 79 82 86 88 87 88 90 93
57 62 62 57 56 54 49 49 50 47 46 44 43 45 50 54 55 54 55 55 57 59 60 61 62 61 63 63 69 69 71 73 75 77 79 81 83 85 86 87 90 93 95 96
53 61 63 63 61 58 54 52 52 49 48 47 47 48 51 52 56 57 58 59 58 59 60 62 62 60 64 67 70 73 75 77 79 80 82 83 85 87 89 91 94 95 96 96
48 59 62 61 61 64 62 58 55 51 49 49 51 54 55 58 60 60 60 60 59 58 62 64 64 65 71 76 76 77 79 81 82 83 84 86 88 91 94 95 95 95 96 100
47 49 52 60 63 61 64 61 58 58 57 58 60 63 66 67 66 67 66 67 67 66 68 72 70 71 77 79 80 81 82 84 85 86 87 88 90 92 94 94 96 98 102 106
46 46 49 49 49 54 60 59 58 59 61 64 68 70 69 69 70 70 71 74 76 77 77 78 75 75 79 81 82 84 85 85 86 88 89 91 92 94 96 99 103 107 111 115
50 49 47 45 44 42 41 46 52 57 61 65 67 68 71 73 75 73 73 72 72 73 71 74 76 79 79 81 82 82 83 85 88 90 92 95 97 100 103 107 110 115 119 122
54 53 52 51 48 46 48 53 57 59 61 63 62 62 64 66 67 69 70 70 69 68 69 72 75 75 77 81 83 84 86 89 92 95 98 101 104 108 112 116 120 123 125 127
58 57 55 52 52 52 53 54 56 57 58 60 61 63 64 66 68 68 70 72 72 73 76 78 81 82 85 87 88 90 94 97 100 104 107 110 113 117 120 122 124 126 128 125
65 64 63 62 62 61 60 59 59 60 62 63 64 66 67 70 72 73 76 79 80 82 84 86 88 92 94 97 99 100 103 108 111 114 117 119 122 123 125 126 124 118 115 115
61 63 68 71 69 67 67 68 70 71 71 72 73 73 76 77 79 82 84 86 88 90 92 95 98 100 101 104 107 111 115 118 119 120 120 118 117 115 113 110 111 111 112 112

GFSNW_250_spd_042.txt.gz
Wind_Speed
99 100 100 92 87 86 75 69 71 65 57 54 41 34 32 34 35 32 31 25 26 25 25 25 23 21 19 19 17 15 14 14 15 16 18 19 19 17 13 12 13 14 15 15
93 94 92 84 76 67 69 73 73 65 58 52 44 41 37 40 39 36 32 29 30 30 28 24 21 21 21 17 15 15 15 18 19 20 19 17 15 14 14 14 16 17 19 19
91 91 85 81 66 66 70 73 73 62 58 53 48 42 42 45 41 39 33 30 30 31 27 23 22 23 20 18 16 15 17 20 19 18 18 19 17 16 17 17 17 20 22 23
86 82 77 71 64 67 68 68 61 57 55 47 45 44 49 46 42 42 36 30 32 32 27 23 25 24 21 17 16 18 20 21 20 20 19 19 18 18 20 20 20 23 25 28
76 72 72 68 62 58 61 61 57 57 53 51 49 50 49 48 45 42 35 34 34 33 25 26 27 24 20 18 17 19 21 22 22 22 21 19 20 23 23 22 24 27 27 33
69 62 65 61 51 54 54 54 57 54 53 47 51 55 51 51 46 40 35 34 35 31 28 30 28 25 22 20 21 22 24 25 24 23 21 20 26 27 25 26 30 31 32 36
65 67 61 49 55 60 59 57 54 52 49 53 58 57 57 52 46 41 39 37 35 31 31 31 29 27 24 22 24 25 26 25 25 26 25 25 32 31 30 31 34 35 38 40
62 56 52 59 62 63 62 57 56 53 55 58 66 60 60 51 47 42 40 37 34 32 32 32 31 28 26 26 27 29 29 28 28 29 31 31 34 36 36 34 39 41 43 45
56 53 57 58 60 60 59 59 57 56 60 62 68 59 59 51 46 42 40 37 36 34 34 34 32 31 30 30 31 32 32 31 32 34 34 34 39 40 39 41 42 47 49 49
52 54 57 59 60 61 60 58 58 61 60 68 68 60 55 52 47 43 41 39 37 36 36 35 33 33 32 33 33 32 32 34 36 37 37 39 40 41 43 45 48 50 52 53
58 57 59 60 61 61 58 59 60 58 62 68 65 61 55 51 47 45 43 41 39 39 37 35 35 34 34 35 35 34 34 35 36 37 39 39 41 43 46 50 52 54 55 57
58 60 62 61 60 59 62 63 61 60 68 66 62 59 56 51 48 45 42 41 37 38 38 38 36 36 36 36 36 35 36 36 38 40 41 42 44 47 50 51 54 56 57 60
65 64 60 60 60 62 61 63 60 63 70 65 62 57 53 49 47 45 41 40 40 41 41 38 37 37 37 36 38 39 40 42 43 44 46 47 50 52 53 53 54 56 59 65
59 59 57 57 61 61 61 55 58 68 66 60 62 58 54 49 47 46 43 42 41 42 40 38 38 38 37 37 38 41 42 43 45 46 48 49 49 49 52 56 60 64 68 71
53 53 55 59 59 60 57 54 61 69 69 62 57 57 55 49 48 47 43 40 41 42 42 41 40 39 39 39 40 42 44 44 46 47 49 51 55 57 61 65 68 71 73 76
48 53 57 58 58 57 57 61 63 67 70 65 56 54 55 50 48 48 44 41 40 42 43 43 41 43 43 43 45 48 49 50 52 53 55 57 60 64 69 71 74 76 79 81
49 54 56 54 52 51 59 64 58 60 66 62 56 54 52 49 49 47 45 43 42 43 43 44 46 48 49 49 51 56 55 56 57 59 62 65 69 70 72 76 78 80 83 86
53 56 53 51 53 53 62 61 59 54 55 57 53 52 50 49 49 48 46 45 46 46 46 48 50 52 53 54 59 60 61 62 64 66 70 72 73 76 79 81 83 86 90 94
51 50 49 48 47 50 59 58 58 56 49 48 52 55 54 50 49 48 49 49 49 50 49 50 52 54 57 61 64 66 67 68 71 75 77 77 80 81 83 86 90 94 95 94
48 47 44 48 51 48 51 55 53 58 51 49 50 53 53 55 54 53 52 51 50 49 52 54 54 57 63 64 65 66 70 74 77 78 79 80 82 86 91 94 94 96 97 97
49 45 46 48 48 48 52 56 54 56 57 55 53 52 56 57 57 56 54 53 53 52 55 58 59 62 67 69 71 74 75 75 77 78 81 86 91 93 94 95 96 98 99 99
50 47 44 42 41 44 51 55 56 55 56 61 61 57 56 57 56 55 54 54 54 53 58 61 62 69 73 73 72 73 75 77 82 88 91 92 94 95 96 98 99 100 102 104
49 49 45 39 36 43 53 55 58 58 57 57 59 60 60 59 60 59 57 56 57 61 62 65 69 71 71 72 74 77 82 86 90 92 94 95 97 97 98 100 103 105 108 111
46 43 41 38 33 42 52 56 60 60 59 57 56 56 57 59 60 60 62 63 64 63 66 70 72 73 76 79 83 86 89 92 93 94 95 95 97 100 103 105 109 112 115 118
47 43 40 39 38 38 44 54 57 59 63 62 59 59 59 59 60 61 62 64 66 69 73 76 78 81 85 88 89 89 91 91 92 94 96 98 101 105 108 111 114 117 119 119
45 45 43 43 44 45 45 45 48 55 61 63 65 65 65 66 68 70 74 75 75 76 77 78 79 80 81 83 85 87 90 92 95 98 102 106 108 111 114 116 118 118 118 116
48 49 48 47 46 45 44 45 47 48 51 53 55 58 60 62 64 66 67 68 70 72 74 77 79 82 85 88 90 93 96 101 103 106 107 108 111 114 114 115 116 115 113 113

GFSNW_250_spd_045.txt.gz
Wind_Speed
108 103 98 106 101 106 98 95 93 88 82 73 66 61 66 50 45 36 32 27 27 27 24 25 24 24 22 23 24 24 24 24 23 22 22 23 24 22 19 19 20 19 18 17
107 104 100 100 99 98 92 91 93 92 80 67 69 71 64 47 45 40 37 33 30 30 26 27 26 25 25 25 25 24 23 23 23 23 24 24 21 20 19 20 20 20 21 20
96 101 102 101 101 93 94 96 89 86 69 72 72 68 58 47 46 43 41 36 32 33 30 30 29 31 28 27 26 25 24 24 24 23 20 22 22 23 22 21 22 21 25 22
96 96 98 100 97 94 94 89 79 70 68 73 67 63 53 49 46 45 41 39 38 37 33 32 33 31 29 27 26 23 23 23 23 23 24 25 24 23 22 24 25 25 26 26
93 96 96 96 92 91 85 81 75 70 74 70 66 62 51 49 47 46 45 43 43 37 36 36 34 30 29 27 24 23 22 24 25 26 26 26 24 26 27 27 25 26 30 31
83 88 94 90 89 77 69 69 56 58 62 65 63 56 49 52 48 50 49 48 43 38 36 38 35 31 32 29 25 23 24 27 28 29 28 26 28 30 27 28 30 30 32 36
79 84 85 83 74 67 70 59 61 61 60 63 59 55 54 54 50 55 53 50 44 38 38 39 35 33 33 31 27 25 26 28 29 30 28 27 33 31 32 32 34 34 37 40
76 78 76 74 67 66 65 59 60 63 64 62 63 58 56 57 57 58 51 49 48 41 42 40 36 35 34 32 28 27 28 30 31 31 30 32 35 36 35 35 39 39 43 46
69 66 68 64 68 64 59 58 58 58 60 59 57 55 61 53 58 57 53 50 44 44 43 40 38 36 36 32 31 30 31 32 32 34 34 35 37 39 40 41 43 45 50 51
60 64 64 64 62 59 58 65 63 61 62 65 63 60 54 58 60 56 53 49 46 45 42 40 38 37 36 35 33 32 32 35 37 37 38 39 40 41 43 46 48 50 52 52
61 63 63 61 58 60 62 60 57 56 56 59 62 62 59 64 59 56 54 51 47 46 43 40 39 38 36 37 36 35 36 37 39 39 40 40 43 44 46 48 49 50 52 55
65 65 61 60 61 62 59 56 56 57 59 60 59 57 62 64 59 62 56 51 51 48 42 41 39 39 38 38 37 37 38 39 41 41 41 42 42 44 45 48 51 54 56 59
61 61 61 62 61 58 58 58 56 59 60 60 61 59 68 63 58 59 54 51 48 46 45 43 40 40 40 38 39 39 39 40 41 44 43 44 45 47 50 52 54 56 57 60
63 65 63 58 57 57 60 58 60 59 56 59 58 64 69 60 58 58 52 51 49 46 44 43 42 43 41 41 40 41 42 43 44 45 45 47 45 49 50 51 54 58 59 63
60 58 58 57 57 59 62 65 62 58 58 57 60 67 69 59 55 58 55 52 50 46 45 44 45 44 44 43 42 42 45 44 45 44 45 47 46 50 55 58 61 63 64 70
58 54 55 59 62 65 66 61 60 59 57 57 60 66 66 59 55 55 54 53 51 49 46 44 44 46 46 45 45 45 48 47 48 46 51 54 56 59 62 65 66 69 74 79
58 61 61 62 61 59 58 57 59 58 56 60 62 65 64 58 57 55 54 53 52 51 48 45 46 47 47 46 46 50 50 50 53 56 59 60 64 65 68 71 74 78 82 83
52 55 58 59 57 59 57 54 54 55 56 61 62 63 59 57 57 56 54 51 51 52 48 46 45 46 47 46 51 54 56 57 60 62 66 66 68 71 74 78 81 84 87 88
49 55 54 52 52 56 55 57 57 50 50 58 62 60 57 57 55 56 55 53 52 51 50 52 52 51 52 56 59 60 62 62 64 65 67 70 74 78 81 83 84 86 88 89
47 46 44 48 52 54 51 50 46 40 49 56 63 61 58 51 49 50 53 55 54 52 54 55 53 54 58 61 62 63 64 63 65 69 73 76 79 83 84 86 87 89 90 95
42 41 45 46 42 43 44 42 43 43 48 47 51 59 59 55 55 54 54 55 53 54 56 57 56 58 64 64 63 64 65 69 73 75 77 81 84 86 88 89 91 94 101 104
43 44 47 44 41 39 38 39 42 48 52 51 49 51 56 57 56 55 55 58 58 55 57 60 58 64 68 68 69 69 70 73 76 79 82 83 85 88 90 94 99 103 104 105
43 43 44 42 38 36 38 41 43 48 56 54 56 55 53 53 55 56 58 59 60 62 63 63 64 71 71 70 72 74 75 78 80 82 84 87 90 94 98 101 104 103 104 107
44 44 43 40 38 37 42 46 46 46 48 55 53 58 63 60 59 58 60 60 60 60 62 65 70 71 72 74 76 77 79 80 82 86 90 95 98 101 101 101 103 106 109 112
44 42 43 41 40 41 41 42 47 51 51 52 55 56 60 63 63 63 64 66 68 67 67 70 71 70 71 74 76 79 82 86 90 93 96 97 98 100 102 104 107 112 116 119
46 44 44 44 44 42 41 37 39 42 47 52 57 59 61 63 64 64 65 65 64 66 69 70 71 74 77 80 83 86 89 90 91 91 93 96 100 103 107 111 114 115 115 116
48 47 43 43 47 46 44 45 44 43 44 49 54 58 61 60 64 67 69 72 73 73 74 77 79 80 82 85 86 87 88 90 93 96 100 104 107 109 110 110 111 111 110 111

GFSNW_250_spd_048.txt.gz
Wind_Speed
118 115 114 114 109 106 104 97 92 96 92 87 83 75 76 79 80 75 73 69 49 32 34 28 28 29 30 29 30 31 26 25 28 27 27 30 31 31 29 29 27 27 28 24
119 117 116 117 116 111 104 98 98 98 98 88 83 80 79 81 79 76 72 66 45 34 35 31 31 27 26 26 25 25 31 31 28 27 32 31 30 27 26 26 27 28 24 24
108 112 113 111 110 110 108 106 105 101 95 88 87 85 83 82 80 72 69 62 44 36 38 36 31 27 27 26 26 31 29 29 30 30 32 26 30 29 28 26 27 25 23 22
102 107 110 109 110 111 110 107 105 98 93 91 87 90 88 80 77 69 71 58 44 41 40 39 35 30 30 29 32 31 31 32 29 29 29 31 28 27 26 26 27 22 27 22
98 99 99 102 110 113 108 103 100 100 98 92 86 80 80 80 73 70 66 48 46 45 44 42 37 35 31 31 34 32 30 29 28 30 29 29 26 27 28 28 27 24 26 26
86 93 95 99 102 100 89 92 99 95 93 87 82 79 78 73 69 64 56 47 50 46 48 42 35 37 35 34 36 33 30 31 29 29 29 28 29 31 29 27 28 28 29 33
80 84 91 96 97 87 85 89 95 91 91 85 77 77 76 74 67 66 50 50 52 48 45 45 41 39 38 36 35 33 31 28 28 31 30 30 34 31 30 31 33 32 32 37
73 81 85 90 90 82 76 78 80 83 82 82 83 79 77 76 68 55 47 51 45 46 50 47 41 42 40 37 35 34 31 29 29 30 31 34 34 33 35 35 37 35 39 43
70 73 80 82 84 79 73 68 70 72 72 73 75 74 72 67 59 43 44 50 48 53 49 45 43 44 43 37 38 36 34 31 30 33 33 35 35 37 38 39 39 40 45 47
66 71 75 71 69 68 71 69 69 66 64 62 66 65 64 54 51 45 49 49 51 53 50 47 47 45 43 41 39 38 35 33 33 34 33 36 36 41 41 42 44 45 48 49
63 66 65 60 61 65 65 62 68 59 58 62 59 58 56 54 48 39 36 49 51 53 51 47 49 47 46 43 39 39 37 36 36 35 35 36 40 40 44 45 47 49 51 53
58 62 61 64 62 59 62 64 55 55 47 50 56 50 49 48 54 64 59 54 58 58 50 47 49 49 46 44 41 39 39 40 40 38 37 39 40 42 46 49 49 49 51 54
56 61 62 62 61 60 61 62 62 61 56 70 51 54 56 58 52 60 65 54 57 55 49 53 49 49 46 44 41 40 40 42 42 43 41 40 42 43 49 48 50 52 52 55
60 61 61 61 61 61 57 55 55 50 51 50 44 49 55 54 58 64 65 60 60 60 56 52 50 50 47 44 42 42 41 44 42 44 42 43 41 46 51 49 50 50 51 57
59 59 58 57 56 56 55 53 51 49 33 47 48 53 55 59 61 64 63 62 58 55 53 49 49 51 50 47 43 44 45 45 46 45 47 48 44 49 52 51 52 56 61 66
58 57 56 55 54 54 54 52 56 52 43 41 50 54 58 60 61 63 63 58 55 52 51 50 51 51 48 48 47 45 49 50 50 48 51 52 51 51 52 56 61 65 69 71
54 54 55 55 54 52 53 58 55 60 51 46 56 59 59 61 60 63 61 54 50 52 52 51 52 51 49 48 47 48 52 52 52 52 52 53 53 56 61 64 68 71 73 77
53 55 53 52 52 53 56 57 56 62 55 51 56 60 61 57 59 62 58 52 49 50 52 54 53 52 51 49 48 52 55 53 54 55 55 56 61 65 69 72 73 75 77 81
46 49 51 54 57 58 59 59 59 58 59 50 50 55 54 52 57 61 59 51 48 50 53 55 53 52 51 54 55 55 57 56 59 60 64 66 68 70 72 72 76 79 83 87
48 51 54 54 53 52 47 47 48 50 53 52 52 51 49 51 54 59 60 53 49 49 52 54 51 50 53 57 61 63 62 63 63 64 66 68 69 71 74 77 81 84 86 89
41 40 38 39 40 41 43 45 45 45 44 43 42 42 45 49 54 58 62 58 53 51 52 53 52 53 61 63 63 63 66 66 66 67 69 71 74 77 80 83 86 88 90 93
37 37 36 36 36 37 38 42 41 38 39 41 43 44 48 51 52 54 58 56 51 47 49 52 51 59 64 66 66 66 66 66 69 72 76 78 80 82 85 88 89 92 94 97
34 36 36 39 39 37 40 41 38 36 42 41 39 44 48 51 53 56 60 55 51 52 52 52 55 63 66 65 66 68 71 73 76 79 81 82 84 86 88 90 92 95 99 102
35 35 36 36 34 35 37 40 41 41 39 36 36 39 43 47 47 52 61 61 59 59 58 59 65 67 68 69 72 73 74 76 77 79 81 85 86 88 91 95 98 101 105 108
34 36 38 40 42 40 37 39 39 38 40 40 39 41 45 49 49 51 52 54 56 57 59 65 67 67 67 68 70 74 77 81 84 85 86 88 90 93 97 100 103 107 107 109
40 42 41 42 45 45 40 38 38 40 43 43 42 42 43 46 50 57 59 60 61 66 69 68 69 71 73 75 78 78 78 79 82 85 89 92 96 100 102 105 106 107 112 114
40 42 43 43 45 47 46 43 41 40 40 41 43 46 48 49 49 52 56 58 60 63 65 68 70 71 72 74 78 82 84 87 90 94 97 99 100 103 103 105 110 113 117 119